�������l�o���
Date,Time,MP-1(��Sv/h),MP-2(��Sv/h),MP-3(��Sv/h),MP-4(��Sv/h),MP-5(��Sv/h),MP-6(��Sv/h),MP-7(��Sv/h),MP-8(��Sv/h),����,����(m/s),���J
2020/02/01,00:00,0.694,0.990,0.648,1.236,0.857,0.400,0.701,0.665,���k��,4.3,��
2020/02/01,00:10,0.694,0.991,0.649,1.236,0.855,0.401,0.700,0.666,���k��,3.2,��
2020/02/01,00:20,0.694,0.991,0.650,1.236,0.857,0.401,0.701,0.666,���k��,2.9,��
2020/02/01,00:30,0.695,0.990,0.648,1.236,0.857,0.401,0.699,0.667,���k��,3.2,��
2020/02/01,00:40,0.694,0.992,0.648,1.236,0.855,0.402,0.701,0.665,�k��,3.0,��
2020/02/01,00:50,0.696,0.991,0.648,1.236,0.857,0.400,0.699,0.666,���k��,3.0,��
2020/02/01,01:00,0.694,0.989,0.650,1.236,0.857,0.400,0.700,0.666,���k��,4.7,��
2020/02/01,01:10,0.695,0.990,0.649,1.236,0.855,0.402,0.699,0.666,���k��,5.5,��
2020/02/01,01:20,0.693,0.989,0.649,1.238,0.858,0.402,0.700,0.668,���k��,6.3,��
2020/02/01,01:30,0.694,0.988,0.650,1.236,0.857,0.401,0.700,0.665,���k��,6.3,��
2020/02/01,01:40,0.694,0.989,0.649,1.237,0.858,0.400,0.699,0.668,���k��,5.8,��
2020/02/01,01:50,0.695,0.988,0.650,1.234,0.856,0.400,0.701,0.666,���k��,5.8,��
2020/02/01,02:00,0.694,0.989,0.649,1.236,0.857,0.401,0.700,0.665,�k��,5.8,��
2020/02/01,02:10,0.693,0.992,0.650,1.237,0.857,0.401,0.701,0.667,���k��,6.4,��
2020/02/01,02:20,0.693,0.992,0.649,1.239,0.856,0.402,0.701,0.666,���k��,4.4,��
2020/02/01,02:30,0.693,0.991,0.649,1.234,0.856,0.401,0.700,0.665,�k��,4.4,��
2020/02/01,02:40,0.694,0.989,0.650,1.235,0.858,0.402,0.701,0.666,���k��,4.6,��
2020/02/01,02:50,0.694,0.990,0.649,1.236,0.857,0.402,0.700,0.665,�k��,5.6,��
2020/02/01,03:00,0.693,0.991,0.649,1.236,0.857,0.401,0.701,0.667,���k��,4.9,��
2020/02/01,03:10,0.693,0.989,0.649,1.236,0.858,0.400,0.700,0.665,�k��,5.5,��
2020/02/01,03:20,0.693,0.989,0.649,1.237,0.857,0.402,0.701,0.667,�k��,6.1,��
2020/02/01,03:30,0.696,0.990,0.649,1.237,0.857,0.401,0.702,0.664,�k��,6.6,��
2020/02/01,03:40,0.694,0.988,0.649,1.237,0.857,0.401,0.702,0.664,�k��,7.5,��
2020/02/01,03:50,0.696,0.989,0.651,1.239,0.858,0.401,0.702,0.666,�k��,9.6,��
2020/02/01,04:00,0.693,0.989,0.649,1.236,0.860,0.400,0.701,0.666,���k��,9.1,��
2020/02/01,04:10,0.694,0.990,0.650,1.238,0.857,0.402,0.699,0.667,���k��,9.7,��
2020/02/01,04:20,0.696,0.990,0.649,1.237,0.858,0.401,0.701,0.666,���k��,9.3,��
2020/02/01,04:30,0.695,0.993,0.650,1.236,0.858,0.402,0.700,0.665,���k��,9.3,��
2020/02/01,04:40,0.695,0.990,0.650,1.238,0.858,0.400,0.702,0.666,���k��,8.3,��
2020/02/01,04:50,0.693,0.989,0.649,1.237,0.859,0.399,0.700,0.665,���k��,8.6,��
2020/02/01,05:00,0.692,0.991,0.649,1.237,0.858,0.399,0.701,0.667,���k��,8.2,��
2020/02/01,05:10,0.694,0.990,0.650,1.238,0.859,0.401,0.700,0.667,�k��,8.0,��
2020/02/01,05:20,0.696,0.992,0.648,1.238,0.859,0.402,0.701,0.667,�k��,8.8,��
2020/02/01,05:30,0.693,0.994,0.648,1.239,0.857,0.400,0.701,0.666,���k��,8.2,��
2020/02/01,05:40,0.694,0.990,0.648,1.237,0.857,0.400,0.702,0.667,���k��,8.9,��
2020/02/01,05:50,0.696,0.990,0.649,1.237,0.856,0.400,0.701,0.666,���k��,8.6,��
2020/02/01,06:00,0.694,0.991,0.649,1.236,0.858,0.400,0.701,0.666,�k��,8.5,��
2020/02/01,06:10,0.695,0.991,0.649,1.239,0.857,0.400,0.701,0.666,���k��,6.7,��
2020/02/01,06:20,0.696,0.990,0.650,1.237,0.858,0.399,0.699,0.666,���k��,7.2,��
2020/02/01,06:30,0.693,0.991,0.649,1.239,0.856,0.400,0.699,0.666,���k��,7.4,��
2020/02/01,06:40,0.692,0.991,0.649,1.237,0.859,0.400,0.699,0.666,���k��,6.1,��
2020/02/01,06:50,0.692,0.993,0.649,1.237,0.859,0.398,0.699,0.667,��,4.9,��
2020/02/01,07:00,0.693,0.991,0.649,1.236,0.858,0.399,0.699,0.663,���k��,5.5,��
2020/02/01,07:10,0.695,0.991,0.648,1.237,0.858,0.400,0.700,0.666,���k��,6.0,��
2020/02/01,07:20,0.694,0.991,0.649,1.236,0.856,0.398,0.700,0.666,���k��,5.6,��
2020/02/01,07:30,0.694,0.992,0.648,1.238,0.858,0.401,0.700,0.666,���k��,7.2,��
2020/02/01,07:40,0.695,0.990,0.648,1.239,0.855,0.400,0.701,0.668,���k��,7.5,��
2020/02/01,07:50,0.693,0.990,0.649,1.237,0.859,0.400,0.699,0.667,���k��,6.9,��
2020/02/01,08:00,0.692,0.991,0.650,1.239,0.856,0.400,0.700,0.666,���k��,6.1,��
2020/02/01,08:10,0.695,0.992,0.648,1.239,0.856,0.399,0.699,0.668,���k��,4.1,��
2020/02/01,08:20,0.693,0.992,0.648,1.238,0.858,0.400,0.701,0.668,���k��,3.9,��
2020/02/01,08:30,0.694,0.990,0.648,1.239,0.857,0.400,0.701,0.668,���k��,4.7,��
2020/02/01,08:40,0.695,0.990,0.648,1.238,0.861,0.401,0.701,0.666,���k��,6.4,��
2020/02/01,08:50,0.694,0.988,0.650,1.241,0.857,0.399,0.702,0.666,���k��,6.4,��
2020/02/01,09:00,0.694,0.986,0.649,1.237,0.857,0.399,0.701,0.665,��,5.0,��
2020/02/01,09:10,0.696,0.988,0.650,1.238,0.860,0.401,0.701,0.666,���k��,5.5,��
2020/02/01,09:20,0.695,0.989,0.649,1.240,0.857,0.401,0.704,0.666,���k��,5.2,��
2020/02/01,09:30,0.696,0.986,0.651,1.239,0.859,0.401,0.703,0.667,��,4.0,��
2020/02/01,09:40,0.698,0.989,0.652,1.237,0.859,0.401,0.699,0.666,��,4.3,��
2020/02/01,09:50,0.696,0.988,0.650,1.239,0.857,0.401,0.699,0.667,�k��,4.9,��
2020/02/01,10:00,0.696,0.985,0.650,1.240,0.860,0.400,0.700,0.667,��,3.6,��
2020/02/01,10:10,0.695,0.989,0.651,1.240,0.859,0.401,0.701,0.668,���k��,2.8,��
2020/02/01,10:20,0.698,0.988,0.648,1.239,0.857,0.401,0.699,0.669,�k��,2.6,��
2020/02/01,10:30,0.696,0.986,0.650,1.240,0.858,0.403,0.701,0.667,�k��,3.8,��
2020/02/01,10:40,0.695,0.988,0.650,1.240,0.859,0.402,0.699,0.667,���k��,3.0,��
2020/02/01,10:50,0.698,0.986,0.650,1.239,0.860,0.402,0.700,0.667,�k�k��,3.0,��
2020/02/01,11:00,0.698,0.988,0.649,1.240,0.860,0.401,0.700,0.666,�k,3.1,��
2020/02/01,11:10,0.697,0.987,0.651,1.239,0.858,0.402,0.699,0.667,�k��,3.0,��
2020/02/01,11:20,0.696,0.989,0.649,1.242,0.861,0.402,0.699,0.667,�k�k��,2.7,��
2020/02/01,11:30,0.697,0.985,0.651,1.241,0.863,0.402,0.700,0.666,�k�k��,3.0,��
2020/02/01,11:40,0.696,0.989,0.649,1.240,0.860,0.401,0.703,0.665,�k�k��,3.3,��
2020/02/01,11:50,0.698,0.987,0.650,1.238,0.861,0.402,0.699,0.668,�k�k��,1.7,��
2020/02/01,12:00,0.697,0.990,0.649,1.241,0.861,0.401,0.700,0.668,�k�k��,1.8,��
2020/02/01,12:10,0.698,0.990,0.651,1.238,0.859,0.402,0.699,0.669,�k�k��,2.2,��
2020/02/01,12:20,0.699,0.991,0.652,1.241,0.861,0.400,0.699,0.667,�k�k��,2.9,��
2020/02/01,12:30,0.698,0.990,0.653,1.240,0.862,0.401,0.699,0.668,�k�k��,2.4,��
2020/02/01,12:40,0.700,0.991,0.652,1.242,0.863,0.400,0.700,0.668,�k�k��,1.6,��
2020/02/01,12:50,0.699,0.992,0.651,1.241,0.864,0.401,0.700,0.667,���k��,0.6,��
2020/02/01,13:00,0.699,0.993,0.652,1.240,0.864,0.401,0.700,0.667,�k�k��,2.1,��
2020/02/01,13:10,0.697,0.995,0.651,1.239,0.863,0.402,0.701,0.668,�k��,2.2,��
2020/02/01,13:20,0.700,0.994,0.651,1.243,0.865,0.401,0.700,0.668,�k��,2.7,��
2020/02/01,13:30,0.699,0.990,0.652,1.242,0.862,0.401,0.700,0.667,�k,1.9,��
2020/02/01,13:40,0.698,0.995,0.653,1.240,0.864,0.400,0.701,0.667,���쓌,0.8,��
2020/02/01,13:50,0.699,0.994,0.650,1.240,0.864,0.401,0.699,0.669,��쓌,1.3,��
2020/02/01,14:00,0.699,0.992,0.653,1.241,0.864,0.401,0.700,0.666,�k��,0.6,��
2020/02/01,14:10,0.698,0.993,0.651,1.240,0.863,0.401,0.702,0.669,�k��,3.8,��
2020/02/01,14:20,0.699,0.992,0.651,1.241,0.862,0.400,0.702,0.669,�k��,5.2,��
2020/02/01,14:30,0.700,0.995,0.652,1.241,0.863,0.400,0.701,0.668,�k��,5.8,��
2020/02/01,14:40,0.699,0.991,0.651,1.241,0.862,0.402,0.700,0.669,�k��,4.1,��
2020/02/01,14:50,0.699,0.995,0.652,1.241,0.862,0.400,0.699,0.667,�k��,4.0,��
2020/02/01,15:00,0.698,0.992,0.651,1.242,0.863,0.401,0.700,0.667,�k��,4.9,��
2020/02/01,15:10,0.698,0.996,0.653,1.242,0.864,0.402,0.699,0.667,�k��,4.4,��
2020/02/01,15:20,0.697,0.994,0.650,1.243,0.862,0.399,0.700,0.666,�k��,4.9,��
2020/02/01,15:30,0.698,0.992,0.653,1.241,0.862,0.400,0.700,0.667,�k��,3.2,��
2020/02/01,15:40,0.698,0.993,0.651,1.240,0.863,0.402,0.701,0.668,���k��,6.0,��
2020/02/01,15:50,0.698,0.996,0.648,1.241,0.862,0.402,0.701,0.667,���k��,6.0,��
2020/02/01,16:00,0.698,0.994,0.650,1.239,0.864,0.401,0.701,0.665,�k��,6.3,��
2020/02/01,16:10,0.699,0.997,0.651,1.241,0.861,0.401,0.701,0.666,���k��,7.7,��
2020/02/01,16:20,0.697,0.996,0.652,1.241,0.861,0.401,0.701,0.665,�k��,7.7,��
2020/02/01,16:30,0.699,0.996,0.651,1.239,0.863,0.399,0.700,0.665,�k��,9.3,��
2020/02/01,16:40,0.696,0.997,0.650,1.239,0.862,0.401,0.700,0.668,�k��,8.0,��
2020/02/01,16:50,0.696,0.998,0.652,1.241,0.862,0.401,0.700,0.666,���k��,6.9,��
2020/02/01,17:00,0.696,0.996,0.650,1.242,0.861,0.401,0.700,0.667,���k��,8.8,��
2020/02/01,17:10,0.698,0.995,0.650,1.242,0.863,0.401,0.701,0.667,���k��,10.2,��
2020/02/01,17:20,0.695,0.998,0.649,1.242,0.863,0.401,0.702,0.667,���k��,9.6,��
2020/02/01,17:30,0.696,0.997,0.652,1.242,0.862,0.401,0.702,0.667,���k��,6.9,��
2020/02/01,17:40,0.695,0.998,0.652,1.244,0.862,0.400,0.702,0.666,���k��,7.7,��
2020/02/01,17:50,0.697,0.997,0.651,1.242,0.862,0.401,0.701,0.667,���k��,7.4,��
2020/02/01,18:00,0.698,0.997,0.653,1.243,0.862,0.400,0.704,0.667,���k��,5.5,��
2020/02/01,18:10,0.696,0.998,0.651,1.240,0.861,0.400,0.702,0.666,���k��,6.0,��
2020/02/01,18:20,0.696,0.995,0.651,1.243,0.864,0.402,0.702,0.667,���k��,5.0,��
2020/02/01,18:30,0.695,0.996,0.650,1.240,0.864,0.400,0.704,0.666,���k��,6.4,��
2020/02/01,18:40,0.696,0.997,0.651,1.241,0.860,0.402,0.701,0.666,���k��,6.0,��
2020/02/01,18:50,0.696,0.997,0.651,1.241,0.863,0.401,0.701,0.667,���k��,6.0,��
2020/02/01,19:00,0.695,0.996,0.650,1.243,0.861,0.401,0.700,0.666,�k��,7.1,��
2020/02/01,19:10,0.695,0.995,0.650,1.242,0.864,0.400,0.700,0.666,�k��,5.5,��
2020/02/01,19:20,0.694,0.997,0.650,1.242,0.863,0.401,0.700,0.667,�k��,5.3,��
2020/02/01,19:30,0.696,0.996,0.652,1.242,0.862,0.400,0.700,0.666,���k��,3.4,��
2020/02/01,19:40,0.696,0.996,0.650,1.240,0.860,0.400,0.700,0.666,�k��,3.1,��
2020/02/01,19:50,0.694,0.997,0.651,1.240,0.859,0.402,0.702,0.668,���k��,2.5,��
2020/02/01,20:00,0.694,0.998,0.649,1.240,0.861,0.400,0.701,0.667,���k��,2.6,��
2020/02/01,20:10,0.695,0.994,0.651,1.241,0.861,0.400,0.701,0.667,���k��,2.3,��
2020/02/01,20:20,0.697,0.995,0.650,1.242,0.866,0.400,0.700,0.665,���k��,2.0,��
2020/02/01,20:30,0.695,0.996,0.651,1.240,0.860,0.400,0.700,0.667,���k��,2.4,��
2020/02/01,20:40,0.694,0.995,0.651,1.240,0.864,0.399,0.701,0.667,���k��,2.7,��
2020/02/01,20:50,0.696,0.996,0.652,1.241,0.862,0.399,0.700,0.666,���k��,3.4,��
2020/02/01,21:00,0.694,0.997,0.649,1.241,0.863,0.402,0.698,0.666,���k��,2.7,��
2020/02/01,21:10,0.695,0.996,0.650,1.241,0.861,0.399,0.701,0.665,��,3.0,��
2020/02/01,21:20,0.695,0.996,0.651,1.241,0.863,0.399,0.700,0.666,��,3.4,��
2020/02/01,21:30,0.694,0.994,0.651,1.241,0.861,0.399,0.699,0.666,���k��,3.8,��
2020/02/01,21:40,0.694,0.996,0.650,1.242,0.863,0.401,0.700,0.667,��,4.2,��
2020/02/01,21:50,0.695,0.994,0.652,1.241,0.863,0.400,0.698,0.667,��,3.1,��
2020/02/01,22:00,0.694,0.994,0.651,1.242,0.861,0.400,0.700,0.667,��,4.3,��
2020/02/01,22:10,0.695,0.997,0.651,1.242,0.861,0.400,0.698,0.666,��,5.8,��
2020/02/01,22:20,0.695,0.994,0.651,1.241,0.861,0.400,0.700,0.665,��,5.8,��
2020/02/01,22:30,0.696,0.993,0.651,1.240,0.862,0.401,0.701,0.665,��,6.1,��
2020/02/01,22:40,0.694,0.995,0.650,1.241,0.863,0.400,0.700,0.665,��,5.5,��
2020/02/01,22:50,0.694,0.998,0.650,1.243,0.863,0.399,0.698,0.666,��,6.3,��
2020/02/01,23:00,0.696,0.996,0.651,1.241,0.861,0.400,0.699,0.665,��,4.9,��
2020/02/01,23:10,0.695,0.995,0.651,1.242,0.861,0.399,0.701,0.668,��,3.6,��
2020/02/01,23:20,0.697,0.994,0.650,1.241,0.861,0.401,0.700,0.666,���쐼,1.8,��
2020/02/01,23:30,0.694,0.995,0.651,1.240,0.862,0.398,0.699,0.665,���k��,3.0,��
2020/02/01,23:40,0.695,0.994,0.650,1.239,0.861,0.399,0.700,0.666,��,3.6,��
2020/02/01,23:50,0.693,0.994,0.650,1.240,0.862,0.399,0.698,0.664,���쐼,3.3,��
